FW1093 Weather Reports


Display with metric or nautical units.
time (UTC)temp
F
wind
direction
speed
MPH
gust
MPH
rain 1hr
in
rain 24hr
in
rain mn
in
humidity
%
barometer
mb
20260903174336 77 345 0.0 3.0 0.00 0.34 0.33 84 1013.9
20260903173330 77 353 0.0 3.0 0.00 0.34 0.33 83 1014.0
20260903172321 77 342 0.0 3.0 0.00 0.34 0.33 83 1014.1
20260903171312 77 334 0.0 2.0 0.00 0.34 0.33 83 1014.1
20260903170351 77 137 0.0 2.0 0.00 0.34 0.33 85 1014.2
20260903165348 76 146 0.0 1.0 0.00 0.34 0.33 85 1014.3
20260903164318 76 302 0.0 1.0 0.00 0.34 0.33 86 1014.2
20260903163340 75 342 0.0 3.0 0.00 0.34 0.33 87 1014.2
20260903162331 75 325 1.0 2.0 0.00 0.34 0.33 86 1014.3
20260903161325 75 77 0.0 2.0 0.00 0.34 0.33 89 1014.6
20260903160317 74 40 0.0 2.0 0.00 0.34 0.33 88 1014.6
20260903155338 73 4 0.0 1.0 0.00 0.34 0.33 89 1014.7
20260903154316 73 203 0.0 2.0 0.00 0.34 0.33 90 1014.7
20260903153334 73 1 0.0 2.0 0.00 0.34 0.33 91 1014.8
20260903152329 72 59 0.0 1.0 0.00 0.34 0.33 93 1014.9
20260903151321 72 59 0.0 2.0 0.00 0.34 0.33 93 1014.9
20260903150315 72 33 0.0 1.0 0.00 0.34 0.33 96 1015.1
20260903145354 71 295 0.0 1.0 0.00 0.34 0.33 96 1015.0
20260903144324 71 164 0.0 1.0 0.00 0.34 0.33 97 1015.0
20260903143319 71 80 0.0 1.0 0.00 0.34 0.33 97 1014.9
20260903142314 70 80 0.0 1.0 0.00 0.34 0.33 97 1014.9
20260903141335 70 80 0.0 1.0 0.00 0.34 0.33 97 1015.1
20260903140350 70 80 0.0 1.0 0.00 0.34 0.33 97 1015.2
20260903135324 70 80 0.0 0.0 0.00 0.34 0.33 98 1015.3
20260903134316 70 78 0.0 0.0 0.00 0.34 0.33 98 1015.3
20260903133338 69 78 0.0 0.0 0.00 0.34 0.33 97 1015.3
20260903132333 69 78 0.0 0.0 0.00 0.34 0.33 98 1015.4
20260903131325 69 78 0.0 1.0 0.00 0.34 0.33 98 1015.5
20260903130321 69 79 0.0 0.0 0.00 0.34 0.33 98 1015.7
20260903125333 69 79 0.0 0.0 0.00 0.34 0.33 98 1015.5
20260903124333 69 79 0.0 1.0 0.00 0.34 0.33 98 1015.6
20260903123328 68 79 0.0 0.0 0.00 0.34 0.33 98 1015.6
20260903122319 68 79 0.0 0.0 0.00 0.34 0.33 98 1015.8
20260903121314 68 79 0.0 0.0 0.00 0.34 0.33 98 1015.9
20260903120350 68 79 0.0 0.0 0.00 0.34 0.33 98 1016.0
20260903115321 68 79 0.0 0.0 0.00 0.34 0.33 98 1016.0
20260903114315 67 79 0.0 0.0 0.00 0.34 0.33 98 1016.2
20260903113333 67 79 0.0 0.0 0.00 0.34 0.33 98 1016.3
20260903112328 67 79 0.0 0.0 0.00 0.34 0.33 98 1016.3
20260903111321 67 79 0.0 0.0 0.00 0.34 0.33 98 1016.1
20260903110315 67 79 0.0 0.0 0.00 0.34 0.33 98 1016.1
20260903105335 67 79 0.0 0.0 0.00 0.34 0.33 98 1016.0
20260903104332 67 79 0.0 0.0 0.00 0.34 0.33 98 1016.1
20260903103331 67 79 0.0 0.0 0.00 0.34 0.33 98 1015.9
20260903102322 67 79 0.0 0.0 0.00 0.34 0.33 98 1015.8
20260903101342 67 79 0.0 0.0 0.00 0.34 0.33 98 1016.0
20260903100316 67 79 0.0 0.0 0.00 0.34 0.33 98 1015.7
20260903095336 66 79 0.0 0.0 0.00 0.34 0.33 98 1015.3
20260903094329 66 79 0.0 0.0 0.00 0.34 0.33 97 1015.3
20260903093350 66 79 0.0 0.0 0.00 0.34 0.33 97 1015.6
20260903092327 66 79 0.0 0.0 0.00 0.34 0.33 97 1015.3
20260903091344 66 79 0.0 0.0 0.00 0.34 0.33 97 1015.4
20260903090344 66 79 0.0 0.0 0.00 0.34 0.33 97 1015.8
20260903085317 66 79 0.0 0.0 0.00 0.34 0.33 97 1015.8
20260903084358 66 79 0.0 0.0 0.00 0.34 0.33 97 1015.9
20260903083331 65 79 0.0 0.0 0.00 0.34 0.33 97 1015.8
20260903082323 65 79 0.0 0.0 0.00 0.34 0.33 97 1016.0
20260903081317 65 79 0.0 0.0 0.00 0.34 0.33 97 1016.1
20260903080336 65 79 0.0 0.0 0.00 0.34 0.33 97 1016.3
20260903075337 65 79 0.0 0.0 0.00 0.34 0.33 97 1016.2
20260903074330 65 79 0.0 0.0 0.00 0.34 0.33 97 1016.4
20260903073326 65 79 0.0 0.0 0.00 0.34 0.33 97 1016.4
20260903072320 65 79 0.0 0.0 0.00 0.34 0.33 97 1016.4
20260903071317 65 79 0.0 0.0 0.01 0.34 0.33 97 1016.5
20260903070312 65 79 0.0 0.0 0.01 0.34 0.33 97 1016.6
20260903065333 65 79 0.0 0.0 0.02 0.34 0.33 97 1016.6
20260903064331 65 79 0.0 0.0 0.05 0.34 0.33 97 1016.5
20260903063324 65 79 0.0 1.0 0.20 0.34 0.33 96 1016.7
20260903062320 64 79 0.0 0.0 0.33 0.34 0.33 96 1016.2
20260903061329 64 79 0.0 0.0 0.32 0.33 0.32 96 1016.7
20260903060324 64 79 0.0 0.0 0.32 0.33 0.32 96 1016.8
20260903055343 64 79 0.0 0.0 0.30 0.31 0.30 96 1017.6
20260903054314 64 79 0.0 0.0 0.27 0.28 0.27 95 1018.2
20260903053356 65 79 0.0 2.0 0.14 0.15 0.14 95 1018.8
20260903052330 65 293 0.0 1.0 0.00 0.01 0.00 95 1019.0
20260903051324 64 327 0.0 0.0 0.00 0.01 0.00 95 1018.5
20260903050322 64 327 0.0 0.0 0.00 0.01 0.00 95 1018.5
20260903045315 64 327 0.0 0.0 0.00 0.01 0.00 95 1018.5
20260903044336 64 327 0.0 0.0 0.00 0.01 0.00 94 1018.6
20260903043330 64 327 0.0 0.0 0.00 0.01 0.00 94 1018.7
20260903042323 64 327 0.0 0.0 0.00 0.01 0.00 94 1018.8
20260903041318 64 327 0.0 0.0 0.00 0.01 0.00 94 1018.9
20260903040334 64 327 0.0 0.0 0.00 0.01 0.00 94 1019.0
20260903035338 64 327 0.0 0.0 0.00 0.02 0.01 94 1019.2
20260903034311 64 327 0.0 0.0 0.00 0.02 0.01 94 1019.0
20260903033335 64 327 0.0 0.0 0.00 0.02 0.01 94 1018.6
20260903032326 64 327 0.0 0.0 0.00 0.02 0.01 93 1018.7
20260903031348 64 327 0.0 0.0 0.00 0.02 0.01 93 1018.8
20260903030324 64 327 0.0 0.0 0.00 0.02 0.01 93 1019.2
20260903025318 64 327 0.0 0.0 0.00 0.02 0.01 93 1019.2
20260903024313 64 327 0.0 0.0 0.00 0.02 0.01 93 1019.7
20260903023331 64 327 0.0 0.0 0.00 0.02 0.01 93 1019.8
20260903022324 64 327 0.0 0.0 0.00 0.02 0.01 93 1019.9
20260903021345 64 327 0.0 0.0 0.00 0.02 0.01 93 1019.8
20260903020320 64 327 0.0 0.0 0.00 0.02 0.01 93 1020.2
20260903015312 64 327 0.0 0.0 0.00 0.02 0.01 93 1020.1
20260903014332 64 327 0.0 0.0 0.00 0.02 0.01 93 1020.1
20260903013328 64 327 0.0 0.0 0.00 0.02 0.01 93 1020.0
20260903012321 64 327 0.0 0.0 0.00 0.02 0.01 93 1020.2
20260903011314 64 327 0.0 0.0 0.00 0.02 0.01 92 1020.2
20260903010325 64 327 0.0 0.0 0.00 0.02 0.01 92 1020.1
20260903005315 64 327 0.0 0.0 0.00 0.02 0.01 92 1020.1
20260903004335 64 327 0.0 0.0 0.00 0.02 0.01 92 1020.2
20260903003326 65 327 0.0 0.0 0.00 0.02 0.01 92 1020.3
20260903002319 65 327 0.0 0.0 0.00 0.02 0.01 92 1020.1
20260903001312 65 327 0.0 0.0 0.00 0.02 0.01 92 1019.9
20260903000332 65 327 0.0 1.0 0.00 0.02 0.01 91 1019.6
20260902235327 65 328 0.0 1.0 0.00 0.04 0.01 91 1019.5
20260902234320 65 327 0.0 0.0 0.00 0.04 0.01 91 1019.9
20260902233315 65 281 0.0 0.0 0.00 0.04 0.01 91 1020.1
20260902232328 65 281 0.0 0.0 0.00 0.04 0.01 90 1019.9
20260902231319 66 281 0.0 0.0 0.00 0.04 0.01 90 1020.3
20260902230338 66 281 0.0 0.0 0.00 0.04 0.01 90 1020.5
20260902225328 67 281 0.0 0.0 0.00 0.04 0.01 89 1020.5
20260902224321 67 281 0.0 0.0 0.00 0.04 0.01 88 1020.9
20260902223315 68 281 0.0 0.0 0.00 0.04 0.01 87 1021.0
20260902222335 69 281 0.0 0.0 0.00 0.04 0.01 85 1021.1
20260902221328 69 282 0.0 3.0 0.00 0.04 0.01 86 1021.0
20260902220323 68 293 0.0 0.0 0.00 0.04 0.01 87 1021.0
20260902215313 67 293 0.0 0.0 0.00 0.04 0.01 86 1021.0
20260902214333 67 292 0.0 0.0 0.00 0.04 0.01 89 1021.0
20260902213330 68 292 0.0 0.0 0.00 0.04 0.01 89 1020.9
20260902212325 68 292 0.0 0.0 0.00 0.04 0.01 88 1020.9
20260902211320 68 292 0.0 0.0 0.00 0.04 0.01 87 1021.0
20260902210314 68 292 0.0 0.0 0.00 0.04 0.01 89 1020.8
20260902205333 68 292 0.0 0.0 0.00 0.04 0.01 90 1020.6
20260902204351 68 292 0.0 0.0 0.00 0.04 0.01 89 1020.9
20260902203321 68 292 0.0 0.0 0.01 0.04 0.01 90 1021.1
20260902202318 67 292 0.0 0.0 0.01 0.04 0.01 90 1020.7
20260902201329 68 292 0.0 0.0 0.01 0.04 0.01 90 1020.5
20260902200347 67 292 0.0 0.0 0.01 0.04 0.01 91 1020.4
20260902195321 67 292 0.0 0.0 0.01 0.04 0.01 89 1020.7
20260902194315 66 292 0.0 0.0 0.01 0.04 0.01 88 1020.9
20260902193334 66 292 0.0 0.0 0.00 0.03 0.00 87 1021.0
20260902192327 66 292 0.0 0.0 0.00 0.03 0.00 89 1021.3
20260902191337 67 292 0.0 0.0 0.00 0.03 0.00 87 1021.6
20260902190337 67 292 0.0 0.0 0.00 0.03 0.00 85 1021.5
20260902185330 67 292 0.0 0.0 0.00 0.03 0.00 85 1021.3
20260902184322 68 292 0.0 0.0 0.00 0.03 0.00 83 1021.2
20260902183315 69 292 0.0 1.0 0.00 0.03 0.00 81 1021.1
20260902182337 69 292 0.0 0.0 0.00 0.03 0.00 77 1021.1
20260902181330 70 292 0.0 0.0 0.00 0.03 0.00 78 1021.2
20260902180322 70 292 0.0 1.0 0.00 0.03 0.00 79 1021.5
20260902175315 70 292 0.0 1.0 0.00 0.03 0.00 78 1021.5